Regional Weather Roundup
Issued by NWS Cleveland, OH

Home | Current Version | Previous Version | Graphics & Text | Print | Product List | Glossary On
Versions: 1 2 3 4 5 6 7 8 9 10 11 12 13 14 15 16 17 18 19 20 21 22 23 24 25 26 27 28 29 30 31 32 33 34 35 36 37 38 39 40 41 42 43 44 45 46 47 48 49 50
000
ASUS41 KCLE 211610
RWRCLE
OHIO REGIONAL WEATHER ROUNDUP
NATIONAL WEATHER SERVICE WILMINGTON, OH
1100 AM EST FRI NOV 21 2014

NOTE: "FAIR" INDICATES FEW OR NO CLOUDS BELOW 12,000 FEET WITH NO
SIGNIFICANT WEATHER AND/OR OBSTRUCTIONS TO VISIBILITY.

OHZ001>008-015>018-024>027-034-035-043-044-211700-
   NORTHWEST OHIO

CITY           SKY/WX    TMP DP  RH WIND       PRES   REMARKS
DEFIANCE       SUNNY     23  13  65 SW5       30.50R WCI  17
FINDLAY        SUNNY     22  12  65 W5        30.50R WCI  16
TOLEDO EXPRESS SUNNY     23   9  55 SW6       30.49R WCI  16
TOLEDO METCALF SUNNY     22  10  60 SW8       30.51R WCI  12
LIMA           SUNNY     22  12  65 CALM      30.49R
$$

OHZ009>014-019>023-028>033-038-089-211700-
   NORTHEAST OHIO

CITY           SKY/WX    TMP DP  RH WIND       PRES   REMARKS
CLE-HOPKINS    FLURRIES  21  14  74 SW9       30.50R WCI  11
CLE-LAKEFRONT  CLOUDY    24  10  55 W8        30.47R WCI  15
CUY CO. ARPT   CLOUDY    27  12  54 W16       30.45  WCI  14
LORAIN-ELYRIA  CLOUDY    21  13  71 W10       30.48R WCI  10
ASHTABULA      PTSUNNY   24  11  57 NW9       30.43R WCI  14
AKRON-CANTON   PTSUNNY   23  11  60 W8        30.45R WCI  14
WOOSTER        SUNNY     22   9  57 W8        30.47R WCI  12
MANSFIELD      SUNNY     21  10  62 W5        30.46R WCI  15
YOUNGSTOWN     PTSUNNY   22  13  68 W9        30.43R WCI  12
$$

OHZ042-051>053-060>062-070>072-077>081-211700-
  SOUTHWEST OHIO

CITY           SKY/WX    TMP DP  RH WIND       PRES   REMARKS
CINC-COVINGTON SUNNY     26   9  48 CALM      30.52R
CINC-LUNKEN    SUNNY     27  11  51 NE7       30.56R WCI  19
HAMILTON       SUNNY     25  12  58 E5        30.55R WCI  19
DAYTON         SUNNY     24  10  55 CALM      30.51R
WRIGHT-PAT AFB SUNNY     22   9  58 CALM      30.52R
DAYTON GENERAL SUNNY     23  10  57 CALM      30.51R
WILMINGTON     SUNNY     22   9  57 CALM      30.51R
$$

OHZ036-037-039>041-045>050-054>059-063>069-073>076-082>088-211700-
  CENTRAL AND SOUTHEAST OHIO

CITY           SKY/WX    TMP DP  RH WIND       PRES   REMARKS
COLUMBUS       SUNNY     24  10  55 CALM      30.52R
OSU AIRPORT    SUNNY     22  10  60 CALM      30.50R
BOLTON FIELD   SUNNY     23  10  58 W3        30.52R
RICKENBACK AFB SUNNY     21  10  61 CALM      30.52R
NEWARK         SUNNY     22  10  60 SW3       30.50R
MARION         SUNNY     20  12  71 W3        30.50R
LANCASTER      SUNNY     24  11  57 NE3       30.52R
ZANESVILLE     SUNNY     23  11  60 W6        30.51R WCI  16
NEW PHILLY     SUNNY     23   7  50 W7        30.50R WCI  15
$$


USA.gov is the U.S. government's official web portal to all federal, state and local government web resources and services.